Meteo pe oră la Almuniente

Astăzi, 17 Ianuarie, Duminică

Timp Temperatura Precipitaţii Vânt Presiune Umiditate
00:00 +3°C° 0 mm 3 m/s 732 mmHg 63%
01:00 +3°C° 0 mm 4 m/s 732 mmHg 62%
02:00 +3°C° 0 mm 4 m/s 731 mmHg 61%
03:00 +2°C° 0 mm 5 m/s 731 mmHg 61%
04:00 +2°C° 0 mm 5 m/s 731 mmHg 65%
05:00 +2°C° 0 mm 5 m/s 731 mmHg 69%
06:00 +2°C° 0 mm 5 m/s 731 mmHg 73%
07:00 +3°C° 0 mm 6 m/s 731 mmHg 74%
08:00 +4°C° 0 mm 6 m/s 731 mmHg 75%
09:00 +5°C° 0 mm 7 m/s 731 mmHg 75%
10:00 +6°C° 0 mm 7 m/s 731 mmHg 72%
11:00 +9°C° 0 mm 8 m/s 731 mmHg 69%
12:00 +11°C° 0 mm 9 m/s 731 mmHg 66%
13:00 +11°C° 0 mm 9 m/s 731 mmHg 66%
14:00 +11°C° 0 mm 9 m/s 731 mmHg 67%
15:00 +11°C° 0 mm 9 m/s 730 mmHg 67%
16:00 +10°C° 0 mm 8 m/s 731 mmHg 72%
17:00 +9°C° 0 mm 7 m/s 731 mmHg 76%
18:00 +6°C° 0 mm 7 m/s 731 mmHg 81%
19:00 +7°C° 0 mm 6 m/s 731 mmHg 82%
20:00 +5°C° 0 mm 6 m/s 731 mmHg 84%
21:00 +5°C° 0 mm 5 m/s 732 mmHg 85%
22:00 +5°C° 0 mm 4 m/s 732 mmHg 85%
23:00 +4°C° 0 mm 4 m/s 732 mmHg 85%

Mâine, 18 Ianuarie, Luni

Timp Temperatura Precipitaţii Vânt Presiune Umiditate
00:00 +3°C° 0 mm 3 m/s 732 mmHg 85%
01:00 +3°C° 0 mm 3 m/s 732 mmHg 83%
02:00 +3°C° 0 mm 2 m/s 731 mmHg 81%
03:00 +3°C° 0 mm 2 m/s 731 mmHg 79%
04:00 +3°C° 0 mm 2 m/s 731 mmHg 77%
05:00 +2°C° 0 mm 2 m/s 731 mmHg 74%
06:00 +3°C° 0 mm 1 m/s 731 mmHg 72%
07:00 +4°C° 0 mm 1 m/s 731 mmHg 69%
08:00 +4°C° 0 mm 1 m/s 732 mmHg 67%
09:00 +5°C° 0 mm 1 m/s 732 mmHg 64%
10:00 +7°C° 0 mm 1 m/s 732 mmHg 60%
11:00 +7°C° 0 mm 2 m/s 731 mmHg 55%
12:00 +9°C° 0 mm 2 m/s 731 mmHg 51%
13:00 +9°C° 0 mm 2 m/s 731 mmHg 52%
14:00 +10°C° 0 mm 2 m/s 731 mmHg 54%
15:00 +10°C° 0 mm 2 m/s 730 mmHg 55%
16:00 +8°C° 0 mm 2 m/s 730 mmHg 61%
17:00 +8°C° 0 mm 1 m/s 731 mmHg 67%
18:00 +6°C° 0 mm 1 m/s 731 mmHg 73%
19:00 +6°C° 0 mm 1 m/s 731 mmHg 75%
20:00 +5°C° 0 mm 1 m/s 731 mmHg 77%
21:00 +4°C° 0 mm 1 m/s 731 mmHg 79%
22:00 +4°C° 0 mm 1 m/s 731 mmHg 79%
23:00 +4°C° 0 mm 1 m/s 731 mmHg 80%

Poimâine, 19 Ianuarie, Marţi

Timp Temperatura Precipitaţii Vânt Presiune Umiditate
00:00 +3°C° 0 mm 1 m/s 731 mmHg 80%
01:00 +3°C° 0 mm 1 m/s 730 mmHg 82%
02:00 +3°C° 0 mm 1 m/s 730 mmHg 83%
03:00 +3°C° 0 mm 1 m/s 729 mmHg 84%
04:00 +2°C° 0 mm 1 m/s 729 mmHg 84%
05:00 +2°C° 0 mm 1 m/s 729 mmHg 84%
06:00 +2°C° 0 mm 1 m/s 729 mmHg 84%
07:00 +3°C° 0 mm 1 m/s 729 mmHg 82%
08:00 +4°C° 0 mm 1 m/s 729 mmHg 79%
09:00 +5°C° 0 mm 1 m/s 729 mmHg 76%
10:00 +6°C° 0 mm 1 m/s 728 mmHg 72%
11:00 +7°C° 0 mm 2 m/s 728 mmHg 68%
12:00 +8°C° 0 mm 2 m/s 728 mmHg 64%
13:00 +8°C° 0 mm 2 m/s 727 mmHg 63%
14:00 +9°C° 0 mm 2 m/s 726 mmHg 62%
15:00 +9°C° 0 mm 2 m/s 726 mmHg 61%
16:00 +8°C° 0 mm 2 m/s 726 mmHg 68%
17:00 +6°C° 0 mm 2 m/s 726 mmHg 74%
18:00 +5°C° 0 mm 2 m/s 726 mmHg 80%
19:00 +4°C° 0 mm 2 m/s 725 mmHg 80%
20:00 +4°C° 0 mm 2 m/s 725 mmHg 79%
21:00 +4°C° 0 mm 2 m/s 725 mmHg 79%
22:00 +3°C° 0 mm 3 m/s 724 mmHg 79%
23:00 +3°C° 0 mm 3 m/s 724 mmHg 79%

20 Ianuarie, Miercuri

Timp Temperatura Precipitaţii Vânt Presiune Umiditate
00:00 +3°C° 0 mm 3 m/s 724 mmHg 80%
01:00 +2°C° 0 mm 3 m/s 723 mmHg 79%
02:00 +2°C° 0 mm 3 m/s 722 mmHg 79%
03:00 +2°C° 0 mm 3 m/s 722 mmHg 79%
04:00 +2°C° 0 mm 3 m/s 721 mmHg 78%
05:00 +3°C° 0 mm 2 m/s 721 mmHg 78%
06:00 +3°C° 0 mm 2 m/s 721 mmHg 77%
07:00 +4°C° 0 mm 2 m/s 720 mmHg 75%
08:00 +3°C° 0 mm 3 m/s 720 mmHg 74%
09:00 +4°C° 0 mm 3 m/s 720 mmHg 72%
10:00 +5°C° 0.2 mm 4 m/s 719 mmHg 73%
11:00 +5°C° 0.2 mm 4 m/s 719 mmHg 75%
12:00 +6°C° 0.2 mm 5 m/s 718 mmHg 76%
13:00 +6°C° 0 mm 5 m/s 717 mmHg 78%
14:00 +5°C° 0 mm 5 m/s 717 mmHg 79%
15:00 +5°C° 0 mm 4 m/s 716 mmHg 81%
16:00 +5°C° 0.3 mm 4 m/s 716 mmHg 84%
17:00 +5°C° 0.3 mm 4 m/s 717 mmHg 87%
18:00 +4°C° 0.3 mm 4 m/s 717 mmHg 89%
19:00 +4°C° 0.2 mm 3 m/s 717 mmHg 90%
20:00 +4°C° 0.2 mm 3 m/s 717 mmHg 91%
21:00 +6°C° 0.2 mm 2 m/s 717 mmHg 92%
22:00 +5°C° 0 mm 2 m/s 717 mmHg 91%
23:00 +6°C° 0 mm 1 m/s 718 mmHg 91%

21 Ianuarie, Joi

Timp Temperatura Precipitaţii Vânt Presiune Umiditate
00:00 +6°C° 0 mm 1 m/s 718 mmHg 91%
01:00 +6°C° 0 mm 1 m/s 718 mmHg 90%
02:00 +6°C° 0 mm 2 m/s 718 mmHg 90%
03:00 +6°C° 0 mm 2 m/s 718 mmHg 89%
04:00 +6°C° 0 mm 2 m/s 719 mmHg 89%
05:00 +5°C° 0 mm 2 m/s 719 mmHg 88%
06:00 +5°C° 0 mm 2 m/s 719 mmHg 88%
07:00 +6°C° 0 mm 2 m/s 720 mmHg 86%
08:00 +7°C° 0 mm 2 m/s 720 mmHg 85%
09:00 +7°C° 0 mm 2 m/s 720 mmHg 83%
10:00 +9°C° 0 mm 3 m/s 720 mmHg 77%
11:00 +10°C° 0 mm 4 m/s 720 mmHg 71%
12:00 +12°C° 0 mm 5 m/s 720 mmHg 64%
13:00 +12°C° 0 mm 5 m/s 719 mmHg 66%
14:00 +12°C° 0 mm 4 m/s 719 mmHg 67%
15:00 +12°C° 0 mm 4 m/s 718 mmHg 68%
16:00 +10°C° 0.1 mm 5 m/s 718 mmHg 69%
17:00 +10°C° 0.1 mm 5 m/s 717 mmHg 70%
18:00 +9°C° 0.1 mm 5 m/s 717 mmHg 71%
19:00 +9°C° 0.1 mm 5 m/s 717 mmHg 73%
20:00 +9°C° 0.1 mm 5 m/s 717 mmHg 75%
21:00 +9°C° 0.1 mm 5 m/s 717 mmHg 77%
22:00 +8°C° 0 mm 5 m/s 717 mmHg 75%
23:00 +8°C° 0 mm 5 m/s 717 mmHg 74%

22 Ianuarie, Vineri

Timp Temperatura Precipitaţii Vânt Presiune Umiditate
00:00 +8°C° 0 mm 6 m/s 717 mmHg 72%
01:00 +8°C° 0 mm 6 m/s 717 mmHg 71%
02:00 +8°C° 0 mm 7 m/s 717 mmHg 71%
03:00 +6°C° 0 mm 7 m/s 717 mmHg 70%
04:00 +6°C° 0 mm 7 m/s 717 mmHg 71%
05:00 +7°C° 0 mm 6 m/s 717 mmHg 72%
06:00 +7°C° 0 mm 6 m/s 717 mmHg 73%
07:00 +7°C° 0.1 mm 6 m/s 718 mmHg 73%
08:00 +7°C° 0.1 mm 6 m/s 718 mmHg 72%
09:00 +6°C° 0.1 mm 7 m/s 719 mmHg 71%
10:00 +8°C° 0 mm 7 m/s 719 mmHg 67%
11:00 +9°C° 0 mm 7 m/s 719 mmHg 64%
12:00 +9°C° 0 mm 7 m/s 719 mmHg 60%
13:00 +9°C° 0.2 mm 7 m/s 719 mmHg 63%
14:00 +9°C° 0.2 mm 7 m/s 719 mmHg 65%
15:00 +8°C° 0.2 mm 7 m/s 719 mmHg 68%
16:00 +7°C° 0 mm 6 m/s 720 mmHg 70%
17:00 +7°C° 0 mm 6 m/s 720 mmHg 72%
18:00 +6°C° 0 mm 5 m/s 721 mmHg 74%
19:00 +6°C° 0 mm 5 m/s 721 mmHg 74%
20:00 +5°C° 0 mm 5 m/s 722 mmHg 75%
21:00 +5°C° 0 mm 5 m/s 722 mmHg 75%
22:00 +5°C° 0 mm 5 m/s 722 mmHg 75%
23:00 +4°C° 0 mm 6 m/s 722 mmHg 75%
Arată mai mult

Formular de consimțământ

Meteoprog și furnizorii noștri de servicii pot stoca și accesa date personale, precum cookies, identificatori de dispozitiv sau alte tehnologii similare pe dispozitivul dumneavoastră și procesa astfel de date pentru a personaliza conținutul și reclamele, dar și pentru a oferi caracteristici de social media și pentru a analiza traficul.

  • Stocarea și/sau accesarea informațiilor pe dispozitivul dumneavoastră

    Cookies, identificatori de dispozitiv sau alte informații pot fi stocate sau accesate pe dispozitiv în scopurile indicate mai sus.

  • Reclame și conținut personalizat, evaluarea reclamelor și a conținutului, informații despre audiențe și dezvoltarea produselor

    Reclamele și conținutul pot fi personalizate pe baza unui profil. Pot fi adăugate date suplimentare pentru a personaliza mai bine reclamele și conținutul. Performanța reclamelor și conținutului poate fi măsurată. Pot fi obținute informații despre utilizatorii care au văzut reclamele și conținutul. Aceste date pot fi utilizate pentru a dezvolta sau îmbunătăți experiența utilizatorilor, sistemele și software-ul.

Dând clic pe ‘Sunt de acord’, permiteți utilizarea cookie-urilor menționate, a identificatorilor de dispozitiv, balizelor web sau altor tehnologii similare. Setările pot fi modificate din browser-ul dispozitivului dumneavoastră.

În anumite scopuri, interesele legitime pot prima asupra consimțământului. Puteți citi mai multe informații în acest sens în Politica privind Confidențialitatea Datelor și Cookie.